Погода Большеречье

Погода Большеречье : погода сейчас, прогноз погоды и архив. Всё, что Вы хотите узнать о погоде Большеречье!

Хотите узнать прогноз погоды Большеречье? Тогда Вам сюда: Погода Большеречье

Поиск расширенной информации на нашем сайте:

Другие новости

Новости СМИ2

Главная страница сайта

Новости сайта

03.07.2017

Напоминаем, что на нашем специализированном сайте Метеоцентр.Азия вы можете получить высокодетализированные автоматические прогнозы погоды по пунктам России, СНГ и мира в авиационном формате (включающие направление и скорость ветра, видимость, явления погоды, количество и форму облачности, нижнюю и верхнюю границу облачности).


Погода Большеречье - сегодня

Время (UTC), дата Ветер
(°,м/с) 
Видим.   Явления Облачность Т
(°С)
Тd
(°С)
f(%) Тe
(°С)
Pmin
(гПа)
dP
(гПа)
Po
(мм)
O2
(г/м3)
Тmin Tmax R s Состояние
почвы
06 16.08.18 180 (Ю) 20000 м  в посл. час ливневой дождь  8/5 600 м кучево-дожд., средняя 
[Cb calv|Ac trans]
+20.4 +11.6 57 +24  1007.8  0.2  749  279           
09 16.08.18 260 (З) 20000 м    4/0 верхняя 
[Cc]
+24.3 +13.1 50 +30  1008.4  0.2  750  275           
12 16.08.18 270 (З) 20000 м    9/6 600 м кучево-дожд., средняя, верхняя 
[Cb calv|Ac trans|Cs]
+24.7 +16 58 +35  1008.1  -0.3  750  274           
18 16.08.18 300 (СЗ) 10 км    4/0 средняя 
[Ac trans]
+16.8 +12.9 78 +23  1008.9  0.2  750  282           
21 16.08.18 220 (ЮЗ) 10 км    1/0 средняя 
[Ac trans]
+13.7 +13 96 +20  1008.9  750  285           
00 17.08.18 260 (З) 0200 м  туман  4/0 средняя, верхняя 
[Ac trans|Ci fib]
+11.7 +11.1 96 +16  1009.1  -0.1  750  288           
03 17.08.18 290 (З) 2000 м  в посл. час туман  10/8 600 м кучево-дожд., средняя 
[Cb calv|Ac und]
+16 +15.2 95 +26  1009.7  0.7  751  282  +11.6         
06 17.08.18 290 (З) 20000 м  {туман}  10/10 300 м кучево-дожд. 
[Cb calv]
+18.3 +15.3 83 +28  1009.7  0.1  751  280           
09 17.08.18 280 (З) 20000 м    10/10 300 м кучево-дожд. 
[Cb calv]
+20.7 +13.4 63 +27  1009.4  -0.3  750  278           
12 17.08.18 270 (З) 20000 м    10/3 600 м средняя, верхняя 
[Cu hum|Ac trans|Ci fib]
+21.3 +12.5 57 +26  1008.6  -0.7  750  278           
15 17.08.18 190 (Ю) 20000 м    10/6 600 м кучево-дожд., средняя 
[Cb calv|Ac und]
+17.5 +14.5 83 +27  1008.4  -0.3  750  281    +22.3       
18 17.08.18 170 (Ю) 10 км    3/0 средняя 
[Ac trans]
+17 +12.4 74 +22  1006.7  -1.7  748  281           
21 17.08.18 200 (Ю) 10 км    4/0 средняя 
[Ac trans]
+17.9 +13.1 73 +24  1005.4  -1.2  747  280           
00 18.08.18 220 (ЮЗ) 20000 м    8/0 средняя 
[Ac trans]
+15.3 +13.8 91 +23  1006.6  748  283           
03 18.08.18 250 (З) 20000 м    4/4 600 м кучево-дожд. 
[Cb calv]
+17.3 +13 76 +23  1007.6  1.1  749  281  +15         
06 18.08.18 270 (З) 20000 м    9/9 600 м кучево-дожд. 
[Cb calv]
+18 +10.6 62 +20  1008.5  0.9  750  281           
09 18.08.18 270 (З) 20000 м    8/8 600 м кучево-дожд. 
[Cb calv]
+19.2 +10 55 +21  1008.7  0.2  750  281           
12 18.08.18 270 (З) 20000 м    6/4 600 м кучево-дожд., средняя, верхняя 
[Cb calv|Ac cuf|Ci fib]
+19.8 +10.3 54 +23  1008.8  0.1  750  280           
15 18.08.18 270 (З) 20000 м    8/0 средняя, верхняя 
[Ac lent|Ci fib]
+14.1 +8.9 71 +15  1010.4  1.5  751  286    +20.8       
18 18.08.18 200 (Ю) 10 км    3/0 средняя 
[Ac trans]
+10.3 +8.8 90 +10  1010.4  -0.2  751  290           
21 18.08.18 220 (ЮЗ) 10 км    ясно 
+9.3 +8.1 92 +9  1010.5  -0.1  751  291           
00 19.08.18 230 (ЮЗ) 20000 м    10/10 300 м кучево-дожд. 
[Cb calv]
+11.8 +10.7 93 +15  1010.8  0.4  751  288           
03 19.08.18 320 (СЗ) 4000 м  слаб. дождь  10/10 600 м 
[Frnb|Ns]
+12.7 +11.6 93 +16  1011.5  0.7  752  287  +9.2    0.0     
06 19.08.18 320 (СЗ) 20000 м  {дождь}  10/10 600 м кучево-дожд. 
[Cb calv]
+14.7 +12.8 88 +20  1012  0.5  752  285           
09 19.08.18 010 (С) 4000 м  слаб. ливневой дождь  10/10 600 м кучево-дожд. 
[Cb calv]
+14.4 +12.8 90 +20  1012.2  0.2  752  285           
Время (UTC), дата Ветер
(°,м/с) 
Видим.   Явления Облачность Т
(°С)
Тd
(°С)
f(%) Тe
(°С)
Pmin
(гПа)
dP
(гПа)
Po
(мм)
O2
(г/м3)
Тmin Tmax R s Состояние
почвы

Для получения пояснительной информации подведите курсор к названию столбца.

ПОГОДА Большеречье - архив

Всё, что Вы хотите узнать о погоде Большеречье - удобно и подробно!

Выберите нужную дату (начиная с 1 января 2015* года) и нажмите кнопку "Найти".
Будут отображены архивные сводки погоды по пункту Большеречье, начиная с указанной даты.


Отображать данные в формате CSV (для использования в таблицах Excel)


Внимание! Наш архив погоды предназначен исключительно для личного некоммерческого использования в познавательных целях. Если Вам необходимы официальные справки о состоянии погоды (для производственных, юридических, коммерческих и т.п. целей), обращайтесь в органы Росгидромета.

*Примечание: данная дата относится к архиву по метеостанциям СССР (Россия, СНГ, Балтия).
Архив по метеостанциям Зарубежной Европы и Азии (кроме Китая) хранится 10 дней, по другим регионам земного шара (Китай, Африка, Америка, Австралия, Океания) - 1 день.

Большеречье - район местоположения метеостанции


Название, широта, долгота, высота метеостанции:
Большеречье 56.1°ш. 74.6°д. 77 м над ур. моря [Российская Федерация]

Дополнительная информация

В oтличие oт бoльшинства пoгoдных сайтoв мы публикуем пoдрoбную метеoинфoрмацию в детальнoм прoфессиoнальнoм фoрмате.

Характеристики температуры и влажнoсти вoздуха измеряются на высoте 2 м в тени вдали oт зданий и деревьев.
Скoрoсть ветра измеряется на высoте 10 м (на урoвне рoста челoвека скoрoсть ветра ниже в 1.5-2 раза). Если метеoстанция нахoдится в гoрoде или в лесу, тo скoрoсть ветра занижена на 2-4 м/с пo сравнению с oткрытым местoм. Скoрoсть ветра над акватoриями крупных рек и oзёр, а также на вершинах хoлмoв на 2-5 м/с выше, чем в oбычных услoвиях.
Атмoсфернoе давление в разных тoчках местнoсти мoжет значительнo oтличаться oт давления на метеoстанции, в зависимoсти oт услoвий рельефа (при пoдъёме на 10 м давление пoнижается примернo на 1 мм рт.ст.).